TimeMDT,TemperatureF,Dew PointF,Humidity,Sea Level PressureIn,VisibilityMPH,Wind Direction,Wind SpeedMPH,Gust SpeedMPH,PrecipitationIn,Events,Conditions,WindDirDegrees,DateUTC
12:54 AM,66.9,34.0,30,29.96,10.0,West,13.8,-,N/A,,Clear,260,2013-08-30 06:54:00
1:54 AM,64.9,33.1,31,29.95,10.0,West,9.2,-,N/A,,Clear,260,2013-08-30 07:54:00
2:54 AM,64.0,33.1,31,29.95,10.0,West,12.7,-,N/A,,Clear,260,2013-08-30 08:54:00
3:54 AM,64.0,33.1,31,29.94,10.0,WSW,11.5,-,N/A,,Clear,250,2013-08-30 09:54:00
4:54 AM,63.0,34.0,34,29.96,10.0,WSW,11.5,-,N/A,,Clear,250,2013-08-30 10:54:00
5:54 AM,63.0,33.1,33,29.96,10.0,WSW,15.0,-,N/A,,Clear,250,2013-08-30 11:54:00
6:54 AM,63.0,34.0,34,30.01,10.0,WSW,11.5,-,N/A,,Clear,240,2013-08-30 12:54:00
7:54 AM,70.0,37.0,30,30.01,10.0,WSW,11.5,-,N/A,,Clear,240,2013-08-30 13:54:00
8:54 AM,78.1,39.0,25,30.02,10.0,WSW,8.1,-,N/A,,Clear,250,2013-08-30 14:54:00
9:54 AM,84.0,43.0,24,30.01,10.0,WNW,5.8,-,N/A,,Clear,300,2013-08-30 15:54:00
10:54 AM,86.0,42.1,21,29.99,10.0,Calm,Calm,-,N/A,,Clear,0,2013-08-30 16:54:00
11:54 AM,89.1,39.9,18,29.98,10.0,Variable,4.6,-,N/A,,Clear,0,2013-08-30 17:54:00
12:54 PM,91.0,37.9,15,29.95,10.0,Variable,5.8,-,N/A,,Clear,0,2013-08-30 18:54:00
1:54 PM,91.9,37.0,15,29.94,10.0,Calm,Calm,-,N/A,,Clear,0,2013-08-30 19:54:00
2:54 PM,93.0,30.9,11,29.91,10.0,ESE,6.9,-,N/A,,Clear,120,2013-08-30 20:54:00
3:54 PM,93.9,30.9,11,29.88,10.0,SE,9.2,-,N/A,,Clear,130,2013-08-30 21:54:00
4:54 PM,93.0,27.0,9,29.88,10.0,Variable,3.5,-,N/A,,Clear,0,2013-08-30 22:54:00
5:54 PM,91.9,34.0,13,29.87,10.0,East,10.4,17.3,N/A,,Clear,80,2013-08-30 23:54:00
6:54 PM,87.1,34.0,15,29.88,10.0,East,8.1,-,N/A,,Clear,90,2013-08-31 00:54:00
7:54 PM,82.0,33.1,17,29.88,10.0,East,4.6,-,N/A,,Clear,80,2013-08-31 01:54:00
8:54 PM,79.0,35.1,20,29.88,10.0,East,4.6,-,N/A,,Clear,90,2013-08-31 02:54:00
9:54 PM,75.9,37.9,25,29.87,10.0,Calm,Calm,-,N/A,,Clear,0,2013-08-31 03:54:00
10:54 PM,68.0,37.9,33,29.89,10.0,WSW,9.2,-,N/A,,Clear,250,2013-08-31 04:54:00
11:54 PM,64.9,41.0,42,29.88,10.0,WNW,9.2,-,N/A,,Clear,290,2013-08-31 05:54:00